Location: Baix
(44.7118°N, 4.7648°E)
Time: 15:40:37
(UTC+00:00)

IRS-1C - Pass Details

Date: 07 August 2020
Orbit: 816 x 817 km, 98.8° (Epoch: 22 September)

Event Time Altitude Azimuth Distance (km) Brightness Sun altitude
Rises 02:27:56 0° 13° (NNE) 3,356 8.4 -18.8°
Reaches altitude 10° 02:30:17 10° 13° (NNE) 2,419 7.5 -18.5°
Maximum altitude 02:35:39 86° 285° (WNW) 825 4.1 -17.9°
Enters shadow 02:38:41 27° 199° (SSW) 1,529 5.0 -17.5°
